loading
DOY 203 | 2024-07-21T10:17:22Z

CZ-6A DEB, 60213

Orbit data source: Space-Track

CZ-6A DEB, 60213 is space debris in SSO originally from a launch on Thu, 04 Jul 2024 UTC launched from the Taiyaun Space Center, China (TSC). Debris objects in space refer to the collection of defunct objects orbiting the Earth. Examples of debris include non-operational satellites, rocket bodies, and fragments generated from explosions, collisions, or faulty payload assembly.

Loading next visibility...
Loading greatness...
CZ-6A DEB details
NORAD ID60213
COSPAR ID
2024-126C
Orbit
SSO
Last TLE update12 hours ago
Origin
Flag of CNG. Cehui dili (CN / PRC)
ManufacturerSAST
BusUnknown
MotorUnknown
Mass~50 kg wet, ~50 kg dry
Launch date (UTC)
2024-07-04 (2 weeks ago)
Launch vehicleUnknown
Launch site
Taiyaun Space Center, China (TSC)
Object type
Payload
Rocket body
Debris
Radar Cross SectionMedium (>0.1 m² and <1 m²)
Predictive object data (real-time)
Latitude52.92916°
Longitude-81.12944°
Altitude615.956 km
Speed7.556 km/s
Apparent Right ascension12h 11m 41s
Apparent Declination9° 34' 48"
Sunlit
Object is in daylight
Predictive observer data (real-time)
Local Sidereal Time23:15:36
Azimuth342.143° N
Elevation-38.827°
Doppler factor1
Orbital elements
Apogee607.261 km
Perigee601.981 km
Semi-major axis6,982.758 km
Eccentricity0.0003781
Inclination97.8263°
RAAN209.1889°
Arg. of periapsis139.7113°
True anomaly220.41031°
Mean anomaly220.4384°
Mean motion3.71966 °/min
BSTAR0.0017221
Period96.78 mins
Definitive object data (Epoch: 2024-07-20T22:44:39.727Z)
Latitude0.00002°
Longitude-71.17846°
Altitude612.637 km
Speed7.552 km/s
True Right ascension13h 56m 45s
True Declination0° 00' 00"
Sunlit
Object was in daylight at TLE epoch
TLE from 12 hours ago
0 CZ-6A DEB
1 60213U 24126C   24202.94768203  .00015364  00000-0  17221-2 0  9990
2 60213  97.8263 209.1889 0003781 139.7113 220.4384 14.86911496  2385
Epoch: 2024-07-20T22:44Z
No data available
Other satellites on launch #126 in the year 2024 (2024-07-04 UTC)

CZ-6A DEB Visibility forecast

Observer location: 39.9160978°, -105.1181434

CZ-6A DEB is not visible in the next 10 days
Span
Click to sort rows by Start time (UTC) header in descending order
Start Az.
Max El. time (UTC)
Max El. Az.
Max El.
End time (UTC)
End Az.